Вернуться в каталог

THORAD AGENA D DEB

АктивенPO
NORAD 14466·DEBRIS·🇺🇸 United States

Запущен Apr 8, 1970 с Vandenberg Space Force Base

Loading…

Ближайшие Пролёты (ближайшие 24 часа)

TLE

СвежийSource: Space-Track

Эпоха: Sep 14, 2026, 20:14 UTC

1 14466U 70025NS  26257.84332179  .00004988  00000-0  10188-2 0  9993
2 14466  99.9703 107.0711 0044061   5.9704 354.2007 14.60873343325502

Отслеживайте THORAD AGENA D DEB в реальном времени с AllMySat

Download on the App Store